Location: Hiekkapohja
(62.3333°N, 25.7833°E)
Time: 05:33:44
(UTC+00:00)

Meteor 1-22 Rocket - Pass Details

Date: 07 August 2020
Orbit: 788 x 940 km, 81.2° (Epoch: 20 September)

Event Time Altitude Azimuth Distance (km) Brightness Sun altitude
Exits shadow 00:45:09 - 183° (S) 2,964 6.5 -6.5°
Reaches altitude 10° 00:46:43 10° 181° (S) 2,351 6.0 -6.4°
Maximum altitude 00:51:55 64° 101° (E) 882 4.5 -6.0°
Drops below altitude 10° 00:57:14 10° 21° (NNE) 2,395 8.1 -5.7°
Sets 00:59:40 0° 19° (NNE) 3,345 9.0 -5.5°
